TimeEST,TemperatureF,Dew PointF,Humidity,Sea Level PressureIn,VisibilityMPH,Wind Direction,Wind SpeedMPH,Gust SpeedMPH,PrecipitationIn,Events,Conditions,WindDirDegrees,DateUTC
12:15 AM,32.0,17.6,55,30.33,10.0,WSW,4.6,-,N/A,,Clear,240,2013-11-14 05:15:00
12:35 AM,32.0,19.4,60,30.33,10.0,SW,4.6,-,N/A,,Clear,220,2013-11-14 05:35:00
12:55 AM,32.0,19.4,60,30.31,10.0,SW,5.8,-,N/A,,Clear,230,2013-11-14 05:55:00
1:15 AM,30.2,19.4,64,30.31,10.0,WSW,4.6,-,N/A,,Clear,250,2013-11-14 06:15:00
1:35 AM,30.2,19.4,64,30.31,10.0,SW,4.6,-,N/A,,Clear,230,2013-11-14 06:35:00
1:55 AM,30.2,19.4,64,30.30,10.0,WSW,4.6,-,N/A,,Clear,240,2013-11-14 06:55:00
2:15 AM,30.2,19.4,64,30.30,10.0,WSW,5.8,-,N/A,,Clear,250,2013-11-14 07:15:00
2:35 AM,30.2,19.4,64,30.30,10.0,WSW,5.8,-,N/A,,Clear,240,2013-11-14 07:35:00
2:55 AM,30.2,19.4,64,30.30,10.0,WSW,8.1,-,N/A,,Clear,240,2013-11-14 07:55:00
3:15 AM,30.2,19.4,64,30.30,10.0,WSW,4.6,-,N/A,,Clear,250,2013-11-14 08:15:00
3:35 AM,30.2,19.4,64,30.30,10.0,WSW,4.6,-,N/A,,Clear,240,2013-11-14 08:35:00
3:55 AM,30.2,19.4,64,30.29,10.0,WSW,4.6,-,N/A,,Clear,250,2013-11-14 08:55:00
4:15 AM,30.2,19.4,64,30.29,10.0,WSW,4.6,-,N/A,,Clear,250,2013-11-14 09:15:00
4:35 AM,32.0,19.4,60,30.29,10.0,WSW,3.5,-,N/A,,Clear,240,2013-11-14 09:35:00
4:55 AM,32.0,19.4,60,30.29,10.0,WSW,4.6,-,N/A,,Clear,250,2013-11-14 09:55:00
5:15 AM,32.0,19.4,60,30.29,10.0,WSW,4.6,-,N/A,,Clear,250,2013-11-14 10:15:00
5:35 AM,32.0,17.6,55,30.29,10.0,WSW,5.8,-,N/A,,Clear,250,2013-11-14 10:35:00
5:55 AM,32.0,17.6,55,30.29,10.0,West,4.6,-,N/A,,Clear,280,2013-11-14 10:55:00
6:15 AM,32.0,17.6,55,30.29,10.0,West,4.6,-,N/A,,Clear,270,2013-11-14 11:15:00
6:35 AM,32.0,17.6,55,30.29,10.0,SW,4.6,-,N/A,,Clear,230,2013-11-14 11:35:00
6:55 AM,32.0,17.6,55,30.30,10.0,WSW,5.8,-,N/A,,Clear,240,2013-11-14 11:55:00
7:15 AM,32.0,15.8,51,30.30,10.0,WSW,5.8,-,N/A,,Clear,250,2013-11-14 12:15:00
7:35 AM,33.8,14.0,44,30.31,10.0,WSW,4.6,-,N/A,,Clear,240,2013-11-14 12:35:00
7:55 AM,33.8,14.0,44,30.31,10.0,WSW,4.6,-,N/A,,Clear,250,2013-11-14 12:55:00
8:15 AM,35.6,14.0,41,30.31,10.0,WSW,4.6,-,N/A,,Clear,240,2013-11-14 13:15:00
8:35 AM,35.6,14.0,41,30.31,10.0,WSW,8.1,-,N/A,,Clear,250,2013-11-14 13:35:00
8:55 AM,39.2,12.2,33,30.31,10.0,WSW,9.2,17.3,N/A,,Clear,250,2013-11-14 13:55:00
9:15 AM,39.2,14.0,36,30.32,10.0,West,8.1,-,N/A,,Clear,260,2013-11-14 14:15:00
9:35 AM,42.8,14.0,31,30.32,10.0,WSW,6.9,-,N/A,,Clear,240,2013-11-14 14:35:00
9:55 AM,42.8,12.2,29,30.32,10.0,WSW,5.8,-,N/A,,Clear,250,2013-11-14 14:55:00
10:15 AM,44.6,12.2,27,30.31,10.0,WSW,10.4,-,N/A,,Clear,240,2013-11-14 15:15:00
10:35 AM,44.6,10.4,25,30.31,10.0,WSW,8.1,16.1,N/A,,Clear,250,2013-11-14 15:35:00
10:55 AM,46.4,12.2,25,30.31,10.0,WSW,8.1,-,N/A,,Clear,240,2013-11-14 15:55:00
11:15 AM,48.2,12.2,24,30.30,10.0,West,10.4,18.4,N/A,,Clear,270,2013-11-14 16:15:00
11:35 AM,48.2,10.4,22,30.29,10.0,West,10.4,19.6,N/A,,Clear,260,2013-11-14 16:35:00
11:55 AM,50.0,10.4,20,30.27,10.0,West,9.2,-,N/A,,Clear,270,2013-11-14 16:55:00
12:15 PM,50.0,8.6,19,30.27,10.0,West,12.7,16.1,N/A,,Clear,270,2013-11-14 17:15:00
12:35 PM,51.8,6.8,16,30.26,10.0,West,11.5,18.4,N/A,,Clear,270,2013-11-14 17:35:00
12:55 PM,53.6,8.6,16,30.25,10.0,West,10.4,16.1,N/A,,Clear,260,2013-11-14 17:55:00
1:15 PM,53.6,10.4,18,30.24,10.0,WNW,11.5,-,N/A,,Clear,290,2013-11-14 18:15:00
1:35 PM,53.6,6.8,15,30.24,10.0,West,9.2,-,N/A,,Clear,270,2013-11-14 18:35:00
1:55 PM,53.6,8.6,16,30.24,10.0,West,8.1,-,N/A,,Clear,280,2013-11-14 18:55:00
2:15 PM,53.6,8.6,16,30.24,10.0,West,10.4,-,N/A,,Clear,280,2013-11-14 19:15:00
2:35 PM,53.6,8.6,16,30.23,10.0,West,8.1,-,N/A,,Clear,270,2013-11-14 19:35:00
2:55 PM,55.4,8.6,15,30.22,10.0,West,8.1,-,N/A,,Clear,270,2013-11-14 19:55:00
3:15 PM,53.6,6.8,15,30.22,10.0,WSW,6.9,-,N/A,,Clear,240,2013-11-14 20:15:00
3:35 PM,53.6,6.8,15,30.23,10.0,SW,4.6,-,N/A,,Clear,230,2013-11-14 20:35:00
3:55 PM,53.6,8.6,16,30.22,10.0,West,4.6,-,N/A,,Clear,270,2013-11-14 20:55:00
4:15 PM,53.6,8.6,16,30.22,10.0,SW,4.6,-,N/A,,Clear,230,2013-11-14 21:15:00
4:35 PM,51.8,10.4,19,30.22,10.0,SW,3.5,-,N/A,,Clear,230,2013-11-14 21:35:00
4:55 PM,51.8,10.4,19,30.22,10.0,SW,3.5,-,N/A,,Clear,230,2013-11-14 21:55:00
5:15 PM,50.0,10.4,20,30.23,10.0,SSW,3.5,-,N/A,,Clear,210,2013-11-14 22:15:00
5:35 PM,48.2,19.4,32,30.23,10.0,Calm,Calm,-,N/A,,Clear,0,2013-11-14 22:35:00
5:55 PM,46.4,21.2,37,30.24,10.0,SSW,3.5,-,N/A,,Clear,200,2013-11-14 22:55:00
6:15 PM,46.4,21.2,37,30.24,10.0,SSW,4.6,-,N/A,,Clear,200,2013-11-14 23:15:00
6:35 PM,46.4,23.0,40,30.25,10.0,SW,5.8,-,N/A,,Clear,220,2013-11-14 23:35:00
6:55 PM,44.6,23.0,43,30.25,10.0,SSW,4.6,-,N/A,,Clear,210,2013-11-14 23:55:00
7:15 PM,44.6,24.8,46,30.25,10.0,SW,3.5,-,N/A,,Clear,220,2013-11-15 00:15:00
7:35 PM,44.6,26.6,49,30.25,10.0,SSW,3.5,-,N/A,,Clear,210,2013-11-15 00:35:00
7:55 PM,42.8,26.6,53,30.25,10.0,WSW,3.5,-,N/A,,Clear,240,2013-11-15 00:55:00
8:15 PM,42.8,28.4,57,30.24,10.0,SW,4.6,-,N/A,,Clear,220,2013-11-15 01:15:00
8:35 PM,42.8,28.4,57,30.24,10.0,SW,4.6,-,N/A,,Clear,220,2013-11-15 01:35:00
8:55 PM,42.8,30.2,61,30.24,10.0,SSW,4.6,-,N/A,,Clear,210,2013-11-15 01:55:00
9:15 PM,42.8,30.2,61,30.24,10.0,WSW,6.9,-,N/A,,Clear,240,2013-11-15 02:15:00
9:35 PM,41.0,30.2,65,30.24,10.0,SW,4.6,-,N/A,,Clear,230,2013-11-15 02:35:00
9:55 PM,41.0,32.0,70,30.24,10.0,SW,4.6,-,N/A,,Clear,220,2013-11-15 02:55:00
10:15 PM,41.0,32.0,70,30.24,10.0,SW,3.5,-,N/A,,Clear,230,2013-11-15 03:15:00
10:35 PM,39.2,32.0,75,30.23,10.0,SSW,3.5,-,N/A,,Clear,210,2013-11-15 03:35:00
10:55 PM,39.2,32.0,75,30.23,10.0,SSW,3.5,-,N/A,,Clear,210,2013-11-15 03:55:00
11:15 PM,41.0,30.2,65,30.23,10.0,Calm,Calm,-,N/A,,Clear,0,2013-11-15 04:15:00
11:35 PM,42.8,28.4,57,30.23,10.0,SW,4.6,-,N/A,,Clear,220,2013-11-15 04:35:00
11:55 PM,42.8,28.4,57,30.23,10.0,Calm,Calm,-,N/A,,Clear,0,2013-11-15 04:55:00